(293023) = 2006 WQ58

Discovered at Kitt Peak on 2006-11-17 by Spacewatch.

Orbit

Orbit type: Main Belt

Note: WebGL enabled browser required.

epoch2024-03-31.0
epoch JD2460400.5
perihelion date2025-02-09.27720
perihelion JD2460715.77720
argument of perihelion (°)275.90339
ascending node (°)43.38255
inclination (°)6.89887
eccentricity0.0648064
perihelion distance (AU)2.2976291
Tisserand w.r.t. Jupiter3.5
ΔV w.r.t. Earth (km/sec)9.7
semimajor axis (AU)2.4568486
mean anomaly (°)279.30831
mean daily motion (°/day)0.25593890
aphelion distance (AU)2.616
period (years)3.85
P-vector [x]0.75302762
P-vector [y]-0.54613042
P-vector [z]-0.36700268
Q-vector [x]0.65279585
Q-vector [y]0.69001708
Q-vector [z]0.31262437
absolute magnitude16.9
phase slope0.15
uncertainty0
referenceMPEC 2024-C115
observations used374
oppositions14
arc length (days)7430
first opposition used2002
last opposition used2023
residual rms (arc-secs)0.73
perturbers coarse indicatorM-v
perturbers precise indicator003Ek
first observation date used2002-11-12.0
last observation date used2023-03-17.0
computer nameMPCLINUX
JD of orbit computation2456552.147632
perihelion JD uncertainty (days)3.5048E-04
argument of perihelion uncertainty (°)1.0809E-04
ascending node uncertainty (°)5.3956E-05
inclination uncertainty (°)6.8175E-06
eccentricity uncertainty 1.0009E-07
perihelion distance uncertainty (AU)2.8484E-07
Minimum Orbit Intersection Distances (in AU)
for orbit epoch: 2460200.5, reference: E2024-CB5
Mercury1.86313
Venus1.57127
Earth1.2963
Mars0.89065
Jupiter2.54702
Saturn6.50591
Uranus15.8576
Neptune27.4172

Observations

386 total observations over interval: 2002 11 12.34881 – 2023 03 17.234583
These data are available for download (format description).

Date (UT) J2000 RA J2000 Dec Magn Location Ref
2002 11 12.34881 02 49 34.24 +16 59 11.6 20.7 R 644 – Palomar Mountain/NEAT MPS 308685
2002 11 12.36968 02 49 32.82 +16 59 09.8 19.9 R 644 – Palomar Mountain/NEAT MPS 308685
2002 11 12.39084 02 49 31.41 +16 59 07.4 20.1 R 644 – Palomar Mountain/NEAT MPS 308685
2004 02 18.41944 11 02 38.61 +17 09 40.7 21.0 V 691 – Steward Observatory, Kitt Peak-Spacewatch MPS 240811
2004 02 18.47314 11 02 35.57 +17 09 58.6 21.2 V 691 – Steward Observatory, Kitt Peak-Spacewatch MPS 240811
2004 02 18.51589 11 02 33.20 +17 10 12.9 21.9 V 691 – Steward Observatory, Kitt Peak-Spacewatch MPS 240811
2006 09 27.43548 04 38 39.37 +22 59 35.0 20.6 V G96 – Mt. Lemmon Survey MPS 192509
2006 09 27.44274 04 38 39.55 +22 59 36.1 21.0 V G96 – Mt. Lemmon Survey MPS 192509
2006 09 27.45002 04 38 39.69 +22 59 37.9 20.9 V G96 – Mt. Lemmon Survey MPS 192509
2006 09 27.45734 04 38 39.84 +22 59 39.5 20.8 V G96 – Mt. Lemmon Survey MPS 192509
2006 10 20.43545 04 38 44.84 +24 10 32.7 20.4 V G96 – Mt. Lemmon Survey MPS 192509
2006 10 20.44214 04 38 44.66 +24 10 34.1 20.3 V G96 – Mt. Lemmon Survey MPS 192509
2006 10 20.44884 04 38 44.48 +24 10 34.7 20.2 V G96 – Mt. Lemmon Survey MPS 192509
2006 10 20.45552 04 38 44.34 +24 10 35.6 20.6 V G96 – Mt. Lemmon Survey MPS 192509
2006 11 01.30512 04 32 01.68 +24 37 56.9 20.1 V G96 – Mt. Lemmon Survey MPS 190781
2006 11 01.31302 04 32 01.24 +24 37 58.1 20.3 V G96 – Mt. Lemmon Survey MPS 190781
2006 11 01.32089 04 32 00.92 +24 37 58.7 20.2 V G96 – Mt. Lemmon Survey MPS 190781
2006 11 01.32885 04 32 00.42 +24 38 00.7 19.3 V G96 – Mt. Lemmon Survey MPS 190781
2006 11 17.16217 04 17 04.81 +24 58 24.5 20.3 V 691 – Steward Observatory, Kitt Peak-Spacewatch MPS 190781
2006 11 17.17961 04 17 03.67 +24 58 24.9 20.5 V 691 – Steward Observatory, Kitt Peak-Spacewatch MPS 190781
2006 11 17.19697 04 17 02.51 +24 58 25.8 20.4 V 691 – Steward Observatory, Kitt Peak-Spacewatch MPS 190781
2006 11 21.23563 04 12 32.40 +25 00 02.9 19.3 V G96 – Mt. Lemmon Survey MPS 190781
2006 11 21.24556 04 12 31.68 +25 00 03.4 19.6 V G96 – Mt. Lemmon Survey MPS 190781
2006 11 21.25546 04 12 30.92 +25 00 04.2 19.3 V G96 – Mt. Lemmon Survey MPS 190781
2006 11 21.26531 04 12 30.27 +25 00 04.0 19.3 V G96 – Mt. Lemmon Survey MPS 190781
2006 11 22.20603 04 11 26.39 +25 00 13.7 20.3 V 691 – Steward Observatory, Kitt Peak-Spacewatch MPS 190781
2006 11 22.22343 04 11 25.17 +25 00 13.9 20.5 V 691 – Steward Observatory, Kitt Peak-Spacewatch MPS 190781
2006 11 22.24082 04 11 23.95 +25 00 14.2 20.3 V 691 – Steward Observatory, Kitt Peak-Spacewatch MPS 190781
2006 11 25.14767 04 08 04.90 +25 00 15.0   691 – Steward Observatory, Kitt Peak-Spacewatch MPS 190781
2006 11 25.16503 04 08 03.69 +25 00 15.3   691 – Steward Observatory, Kitt Peak-Spacewatch MPS 190781
2006 11 25.18245 04 08 02.46 +25 00 15.4   691 – Steward Observatory, Kitt Peak-Spacewatch MPS 190781
2006 12 24.29676 03 40 11.17 +24 36 44.2 20.2 V G96 – Mt. Lemmon Survey MPS 192509
2006 12 24.30296 03 40 10.99 +24 36 43.7 20.3 V G96 – Mt. Lemmon Survey MPS 192509
2006 12 24.30917 03 40 10.77 +24 36 43.1 20.8 V G96 – Mt. Lemmon Survey MPS 192509
2006 12 24.31537 03 40 10.45 +24 36 42.8 20.5 V G96 – Mt. Lemmon Survey MPS 192509
2008 03 01.21989 12 04 32.60 +09 00 33.8 20.4 V 691 – Steward Observatory, Kitt Peak-Spacewatch MPS 240811
2008 03 01.23752 12 04 31.70 +09 00 39.0 20.5 V 691 – Steward Observatory, Kitt Peak-Spacewatch MPS 240811
2008 03 01.25514 12 04 30.80 +09 00 44.5 20.4 V 691 – Steward Observatory, Kitt Peak-Spacewatch MPS 240811
2008 03 04.21404 12 02 00.77 +09 15 41.9 20.3 V 691 – Steward Observatory, Kitt Peak-Spacewatch MPS 240811
2008 03 04.23169 12 01 59.78 +09 15 48.3 20.1 V 691 – Steward Observatory, Kitt Peak-Spacewatch MPS 240811
2008 03 04.24935 12 01 58.82 +09 15 53.1 20.2 V 691 – Steward Observatory, Kitt Peak-Spacewatch MPS 240811
2008 03 09.26823 11 57 26.78 +09 40 55.3 20.4 V G96 – Mt. Lemmon Survey MPS 242198
2008 03 09.27436 11 57 26.38 +09 40 57.0 20.4 V G96 – Mt. Lemmon Survey MPS 242198
2008 03 09.28040 11 57 26.06 +09 40 59.1 20.6 V G96 – Mt. Lemmon Survey MPS 242198
2008 03 09.28635 11 57 25.70 +09 41 00.5 20.4 V G96 – Mt. Lemmon Survey MPS 242198
2008 03 12.21469 11 54 39.66 +09 55 05.0 19.9 V 691 – Steward Observatory, Kitt Peak-Spacewatch MPS 243580
2008 03 12.23241 11 54 38.69 +09 55 10.0 19.9 V 691 – Steward Observatory, Kitt Peak-Spacewatch MPS 243580
2008 03 12.25011 11 54 37.56 +09 55 14.4 19.6 V 691 – Steward Observatory, Kitt Peak-Spacewatch MPS 243580
2008 05 10.20812 11 19 45.15 +10 11 51.2 21.3 V G96 – Mt. Lemmon Survey MPS 249830
2008 05 10.21752 11 19 45.19 +10 11 48.7 20.8 V G96 – Mt. Lemmon Survey MPS 249830
2008 05 10.22686 11 19 45.22 +10 11 46.5 21.6 V G96 – Mt. Lemmon Survey MPS 249830
2008 05 10.23580 11 19 45.26 +10 11 43.5 21.2 V G96 – Mt. Lemmon Survey MPS 249830
2010 12 02.44603 05 36 20.88 +29 50 03.7 19.4 V G96 – Mt. Lemmon Survey MPS 359034
2010 12 02.45260 05 36 20.44 +29 50 04.8 19.8 V G96 – Mt. Lemmon Survey MPS 359034
2010 12 02.45919 05 36 19.98 +29 50 05.4 19.5 V G96 – Mt. Lemmon Survey MPS 359034
2010 12 02.46577 05 36 19.58 +29 50 06.5 19.8 V G96 – Mt. Lemmon Survey MPS 359034
2011 01 24.19906 04 49 46.38 +29 48 27.8 20.8 V G96 – Mt. Lemmon Survey MPS 367070
2011 01 24.20628 04 49 46.23 +29 48 27.4 20.9 V G96 – Mt. Lemmon Survey MPS 367070
2011 01 24.21351 04 49 46.12 +29 48 26.9 20.3 V G96 – Mt. Lemmon Survey MPS 367070
2011 01 24.22069 04 49 46.05 +29 48 26.3 20.5 V G96 – Mt. Lemmon Survey MPS 367070
2012 03 04.41520 13 11 12.47 -00 20 10.4 20.8 V 691 – Steward Observatory, Kitt Peak-Spacewatch MPS 416058
2012 03 04.43290 13 11 11.86 -00 20 07.3 20.8 V 691 – Steward Observatory, Kitt Peak-Spacewatch MPS 416058
2012 03 04.45061 13 11 11.26 -00 20 04.1 21.1 V 691 – Steward Observatory, Kitt Peak-Spacewatch MPS 416058
2012 03 12.25521 13 06 16.23 +00 06 31.0   691 – Steward Observatory, Kitt Peak-Spacewatch MPS 417140
2012 03 12.27293 13 06 15.42 +00 06 35.3   691 – Steward Observatory, Kitt Peak-Spacewatch MPS 417140
2012 03 12.29065 13 06 14.67 +00 06 38.3   691 – Steward Observatory, Kitt Peak-Spacewatch MPS 417140
2012 03 16.27082 13 03 12.45 +00 21 46.5 20.4 V 691 – Steward Observatory, Kitt Peak-Spacewatch MPS 417140
2012 03 16.28854 13 03 11.58 +00 21 50.5 20.3 V 691 – Steward Observatory, Kitt Peak-Spacewatch MPS 417140
2012 03 16.30628 13 03 10.70 +00 21 54.8 20.6 V 691 – Steward Observatory, Kitt Peak-Spacewatch MPS 417140
2012 03 25.21093 12 55 23.78 +00 57 22.9   691 – Steward Observatory, Kitt Peak-Spacewatch MPS 420178
2012 03 25.22866 12 55 22.75 +00 57 26.8   691 – Steward Observatory, Kitt Peak-Spacewatch MPS 420178
2012 03 25.24641 12 55 21.74 +00 57 31.2   691 – Steward Observatory, Kitt Peak-Spacewatch MPS 420178
2012 04 12.33991 12 38 01.967 +02 00 17.35 20.4 w F51 – Pan-STARRS 1, Haleakala MPS 420769
2012 04 12.35384 12 38 01.169 +02 00 19.54 20.2 w F51 – Pan-STARRS 1, Haleakala MPS 420769
2012 04 12.36779 12 38 00.369 +02 00 21.78 20.3 w F51 – Pan-STARRS 1, Haleakala MPS 420769
2012 04 12.38181 12 37 59.561 +02 00 23.96 20.2 w F51 – Pan-STARRS 1, Haleakala MPS 420769
2012 04 15.36812 12 35 17.554 +02 07 42.32 20.9 g F51 – Pan-STARRS 1, Haleakala MPS 421792
2012 04 15.37978 12 35 16.915 +02 07 43.78 20.8 g F51 – Pan-STARRS 1, Haleakala MPS 421792
2013 08 16.32860 22 22 00.94 -23 01 21.1 19.3 R G32 – Elena Remote Observatory, San Pedro de Atacama MPS 474301
2013 08 16.33260 22 22 00.67 -23 01 21.9 19.3 R G32 – Elena Remote Observatory, San Pedro de Atacama MPS 474301
2013 08 16.33661 22 22 00.50 -23 01 22.6 19.5 R G32 – Elena Remote Observatory, San Pedro de Atacama MPS 474301
2013 08 16.34063 22 22 00.23 -23 01 22.9 19.3 R G32 – Elena Remote Observatory, San Pedro de Atacama MPS 474301
2013 08 16.34463 22 21 59.98 -23 01 25.2 19.4 R G32 – Elena Remote Observatory, San Pedro de Atacama MPS 474301
2013 08 16.35264 22 21 59.51 -23 01 27.4 19.4 R G32 – Elena Remote Observatory, San Pedro de Atacama MPS 474301
2013 08 16.35664 22 21 59.28 -23 01 28.7 19.2 R G32 – Elena Remote Observatory, San Pedro de Atacama MPS 474301
2013 08 16.36465 22 21 58.81 -23 01 31.0 19.3 R G32 – Elena Remote Observatory, San Pedro de Atacama MPS 474301
